#timestamp,LO_Frequency,Hit,StdDev 
1590508815.3,286046997.2,N
1590508835.1,286046997.4,N
1590508855.9,286046999.1,N
1590508875.7,286046996.5,N
1590508895.6,286046996.9,N
1590508915.4,286047000.0,N
1590508935.2,286047000.6,N
1590508955.1,286047000.2,N
1590508956.0,286047000.2,N
1590508975.8,286047000.2,N
1590508995.7,286047001.1,N
1590509015.5,286046999.4,N
1590509035.3,286046998.6,N
1590509055.2,286046998.7,N
1590509075.0,286046999.1,N
1590509075.9,286046999.1,N
1590509095.7,286046996.9,N
1590509115.6,286046999.0,N
1590509135.4,286046999.3,N
1590509155.3,286047000.4,N
1590509175.1,286046999.8,N
1590509195.8,286047001.8,N
1590509215.7,286047000.8,N
1590509235.5,286047001.1,N
1590509255.4,286046998.1,N
1590509275.2,286047000.3,N
1590509295.0,286047001.0,N
1590509295.9,286047001.0,N
1590509315.8,286047000.8,N
1590509335.6,286046996.5,N
1590509355.5,286046996.5,N
1590509375.3,286046997.4,N
1590509395.1,286046997.0,N
1590509415.9,286046999.6,N
1590509435.7,286046997.1,N
1590509455.5,286046999.4,N
1590509475.4,286046997.2,N
1590509495.2,286046997.0,N
1590509515.1,286046994.9,Y
1590509516.0,286046994.9,P
1590509565.8,286046998.3,E
1590509575.8,286047000.8,N
1590509595.6,286047002.6,P
1590509615.4,286046998.6,N
1590509635.3,286046998.2,N
1590509655.1,286046998.9,N
1590509675.8,286046998.8,N
1590509695.7,286047001.2,N
1590509715.5,286047003.6,N
1590509735.4,286047004.2,N
1590509755.2,286047004.2,N
1590509775.0,286047002.8,N
1590509775.9,286047002.8,N
1590509795.8,286047003.5,N
1590509815.6,286047003.1,N
1590509835.5,286047004.7,N
1590509855.3,286047006.3,N
1590509875.1,286047003.4,N
1590509895.9,286047001.3,N
1590509915.7,286047002.6,N
1590509935.5,286047002.6,N
1590509955.4,286047002.4,N
1590509975.2,286047001.0,N
1590509995.1,286046999.3,N
1590509996.0,286046999.3,N
1590510015.8,286046999.7,N
1590510035.6,286047000.2,N
1590510055.5,286047000.7,N
1590510075.3,286047000.2,N
1590510095.2,286047002.4,N
1590510115.9,286047001.5,N
1590510135.7,286047003.8,N
1590510155.6,286047003.2,N
1590510175.4,286047003.4,N
1590510195.2,286047005.9,N
1590510215.1,286047003.6,N
1590510216.0,286047003.6,N
1590510235.8,286047005.8,Y
1590510255.7,286047002.4,P
1590510275.5,286047000.2,N
1590510295.4,286047002.3,N
1590510315.2,286046998.8,N
1590510335.0,286046997.1,N
1590510335.9,286046997.1,N
1590510355.8,286046994.9,N
1590510375.6,286046996.1,N
1590510395.5,286046993.6,N
1590510415.3,286046995.4,N
1590510435.1,286046996.8,N
1590510455.9,286046995.8,N
1590510475.7,286046996.1,N
1590510495.5,286046996.2,N
1590510515.4,286046995.0,N
1590510535.2,286046996.2,N
1590510555.1,286046997.6,N
1590510556.0,286046997.6,N
1590510575.8,286046996.9,N
1590510595.7,286046997.5,N
1590510615.5,286046996.2,N
1590510635.3,286046996.2,N
1590510655.2,286046993.4,N
1590510675.0,286046994.2,N
1590510675.9,286046994.2,N
1590510695.8,286046992.9,N
1590510715.6,286046994.3,N
1590510735.4,286046994.2,N
1590510755.3,286046994.4,N
1590510775.1,286046994.8,N
1590510795.8,286046992.2,Y
1590510815.7,286046995.3,P
1590510835.5,286046994.1,P
1590510855.4,286046996.2,P
1590510875.2,286046996.0,Y
1590510895.0,286047001.0,P
1590510895.9,286047001.0,N
1590510915.8,286046998.4,N
1590510935.6,286046997.6,N
1590510955.5,286047000.7,N
1590510975.3,286047000.7,N
1590510995.1,286046998.1,N
1590511015.9,286046998.4,N
1590511035.7,286046998.6,N
1590511055.6,286047000.4,N
1590511075.4,286047000.5,N
1590511095.2,286047000.7,N
1590511115.1,286046999.8,N
1590511116.0,286046999.8,N
1590511135.8,286047000.8,N
1590511155.6,286046996.5,N
1590511175.5,286046999.3,N
1590511195.3,286047001.2,N
1590511215.2,286047000.4,N
1590511235.9,286047000.1,N
1590511255.7,286047000.6,N
1590511275.6,286047002.8,N
1590511295.4,286047001.0,N
1590511315.3,286047002.3,N
1590511335.1,286047000.9,N
1590511336.0,286047000.9,N
1590511355.8,286046999.7,N
1590511375.7,286047001.8,N
1590511395.5,286047002.3,N
1590511415.3,286047000.9,N
1590511435.2,286047004.4,Y
1590511455.0,286047001.3,P
1590511455.9,286047001.3,N
1590511475.8,286047001.7,P
1590511495.6,286047004.2,Y
1590511515.4,286047001.5,P
1590511535.3,286047004.4,P
1590511555.1,286047001.8,N
1590511575.9,286047003.8,N
1590511595.7,286047001.7,N
1590511615.5,286047001.7,N
1590511635.4,286047003.8,Y
1590511655.2,286046999.9,P
1590511675.1,286046999.8,N
1590511676.0,286046999.8,N
1590511695.8,286047002.5,N
1590511715.6,286046998.6,N
1590511735.5,286046998.4,N
1590511755.3,286047000.6,N
1590511775.2,286047001.8,N
1590511795.9,286047004.4,Y
1590511815.7,286047004.0,P
1590511835.6,286047003.8,N
1590511855.4,286047002.3,N
1590511875.2,286047002.2,N
1590511895.1,286047004.0,Y
1590511896.0,286047004.0,P
1590511915.8,286046999.9,N
1590511935.7,286047000.7,N
1590511955.5,286046998.5,N
1590511975.3,286046998.2,N
1590511995.2,286047000.6,N
1590512015.0,286046996.5,N
1590512015.9,286046996.5,N
1590512035.8,286046994.9,N
1590512055.6,286046998.2,N
1590512075.4,286046999.6,N
1590512095.3,286046998.5,N
1590512115.1,286047000.8,N
1590512135.9,286047000.5,N
1590512155.7,286046999.4,N
1590512175.5,286046998.3,N
1590512195.4,286047001.1,N
1590512215.2,286047000.3,N
1590512235.0,286047000.8,N
1590512235.9,286047000.8,N
1590512255.8,286046997.6,N
1590512275.6,286046998.3,N
1590512295.5,286046998.4,N
1590512315.3,286046999.5,N
1590512335.1,286046997.5,N
1590512355.9,286046997.3,N
1590512375.7,286046995.4,N
1590512395.6,286046999.3,N
